Klamath Falls, OR

9:59 AM PDT on July 24, 2017 (GMT -0700)
Klamath Falls International

Weather History for KLMT - May, 2014

Change the Weather History Date:

Wednesday, May 28, 2014

  Actual Average Record
Temperature  
Mean Temperature 47 °F 54 °F  
Max Temperature 59 °F 68 °F 91 °F (1983)
Min Temperature 34 °F 39 °F 25 °F (1977)
Degree Days  
Heating Degree Days 18 12  
Month to date heating degree days 329 405  
Since 1 July heating degree days 6416 6724  
Cooling Degree Days 0 0  
Month to date cooling degree days 0 0  
Year to date cooling degree days 0 0  
Moisture  
Dew Point 29 °F    
Average Humidity 56    
Maximum Humidity 82    
Minimum Humidity 30    
Precipitation  
Precipitation 0.00 in 0.02 in 1.01 in (1932)
Month to date precipitation 1.25 1.34  
Year to date precipitation 6.04 7.75  
Sea Level Pressure  
Sea Level Pressure 30.10 in    
Wind  
Wind Speed 8 mph (WNW)    
Max Wind Speed 20 mph    
Max Gust Speed 26 mph    
Visibility 10 miles    
Events      
T = Trace of Precipitation, MM = Missing Value Source: NWS Daily Summary

Daily Weather History Graph

Daily Weather History Graph

Search for Another Location

Airport or City:

Trip Planner

Search our weather history database for the weather conditions in past years. The results will help you decide how hot, cold, wet, or windy it might be!

Date:

Astronomy

May. 28, 2014 Rise Set
Actual Time 5:35 AM PDT 8:33 PM PDT
Civil Twilight 5:02 AM PDT 9:06 PM PDT
Nautical Twilight 4:19 AM PDT 9:49 PM PDT
Astronomical Twilight 3:30 AM PDT 10:39 PM PDT
Moon 5:46 AM PDT (5/28) 8:35 PM PDT (5/28)
Length of Visible Light 16h 04m
Length of Day
14h 58m
New Moon, 0% of the Moon is Illuminated
May 28
New Moon
Jun 5
First Quarter
Jun 12
Full
Jun 19
Last Quarter
Jun 27
New

Hourly Weather History & Observations

Time (PDT) Temp. Windchill Dew Point Humidity Pressure Visibility Wind Dir Wind Speed Gust Speed Precip Events Conditions
12:53 AM 42.1 °F 37.1 °F 34.0 °F 73% 30.03 in 10.0 mi West 8.1 mph - N/A   Clear
1:53 AM 39.9 °F 33.9 °F 33.1 °F 77% 30.03 in 10.0 mi West 9.2 mph - N/A   Clear
2:53 AM 36.0 °F 30.3 °F 30.9 °F 82% 30.04 in 10.0 mi WNW 6.9 mph - N/A   Clear
3:53 AM 37.0 °F 31.6 °F 32.0 °F 82% 30.04 in 10.0 mi West 6.9 mph - N/A   Partly Cloudy
4:53 AM 37.9 °F 31.5 °F 30.9 °F 76% 30.05 in 10.0 mi West 9.2 mph - N/A   Clear
5:53 AM 34.0 °F 28.0 °F 28.9 °F 82% 30.07 in 10.0 mi West 6.9 mph - N/A   Clear
6:53 AM 41.0 °F 34.7 °F 30.9 °F 67% 30.08 in 10.0 mi West 10.4 mph - N/A   Scattered Clouds
7:53 AM 43.0 °F 38.8 °F 30.0 °F 60% 30.09 in 10.0 mi West 6.9 mph - N/A   Clear
8:53 AM 46.0 °F 41.9 °F 28.9 °F 51% 30.11 in 10.0 mi West 8.1 mph 18.4 mph N/A   Clear
9:53 AM 48.0 °F - 27.0 °F 44% 30.11 in 10.0 mi WNW 10.4 mph - N/A   Partly Cloudy
11:53 AM 53.1 °F - 27.0 °F 37% 30.11 in 10.0 mi Variable 5.8 mph - N/A   Partly Cloudy
12:53 PM 54.0 °F - 27.0 °F 35% 30.12 in 10.0 mi West 5.8 mph 19.6 mph N/A   Partly Cloudy
1:53 PM 54.0 °F - 25.0 °F 33% 30.12 in 10.0 mi Variable 6.9 mph 20.7 mph N/A   Scattered Clouds
4:53 PM 57.0 °F - 26.1 °F 30% 30.12 in 10.0 mi NNW 11.5 mph 21.9 mph N/A   Clear
5:53 PM 57.0 °F - 26.1 °F 30% 30.14 in 10.0 mi NW 11.5 mph - N/A   Clear
6:53 PM 52.0 °F - 26.1 °F 37% 30.13 in 10.0 mi NW 12.7 mph - N/A   Clear
7:53 PM 51.1 °F - 28.9 °F 43% 30.14 in 10.0 mi NNW 11.5 mph - N/A   Clear
8:53 PM 48.0 °F - 30.9 °F 52% 30.14 in 10.0 mi NW 9.2 mph - N/A   Clear
9:53 PM 43.0 °F 38.8 °F 32.0 °F 65% 30.17 in 10.0 mi WNW 6.9 mph - N/A   Clear
11:53 PM 41.0 °F 39.0 °F 32.0 °F 70% 30.17 in 10.0 mi NNE 3.5 mph - N/A   Clear